Weather reports worldwide

Advertisment
Amsterdam Airport, Netherlands (6240): temperature & dewpoint: 18.05.2018 08:00:00 - 24.05.2018 08:00:00 (CEST)Amsterdam Airport, Netherlands (6240): temperature 5cm: 18.05.2018 08:00:00 - 24.05.2018 08:00:00 (CEST)Amsterdam Airport, Netherlands (6240): wind speed & gusts: 18.05.2018 08:00:00 - 24.05.2018 08:00:00 (CEST)Amsterdam Airport, Netherlands (6240): wind direction: 18.05.2018 08:00:00 - 24.05.2018 08:00:00 (CEST)Amsterdam Airport, Netherlands (6240): reduced air pressure: 18.05.2018 08:00:00 - 24.05.2018 08:00:00 (CEST)Amsterdam Airport, Netherlands (6240): visibility: 18.05.2018 08:00:00 - 24.05.2018 08:00:00 (CEST)Amsterdam Airport, Netherlands (6240): precipitation: 18.05.2018 08:00:00 - 24.05.2018 08:00:00 (CEST)
Date & Time tt [°C] td [°C] tt 5cm [°C] ff [km/h] ff [kn] fx [km/h] fx [kn] dd ppp [hPa] vv [km] rr [mm]
24.05.2018 08:00:00 17,2 10,2 17,0 22 12 32 18 ENE 1020,9 10 0,0
24.05.2018 07:00:00 16,1 9,7 15,0 22 12 29 16 NE 1020,9 10 0,0
24.05.2018 06:00:00 15,6 9,8 13,8 16 9 29 16 ENE 1020,9 10 0,0
24.05.2018 05:00:00 16,3 9,5 14,1 18 10 32 18 ENE 1021,1 10 0,0
24.05.2018 04:00:00 16,3 10,2 14,7 21 11 29 16 ENE 1021,4 10 0,0
24.05.2018 03:00:00 16,3 11,4 14,6 21 11 29 16 ENE 1021,5 10 0,0
24.05.2018 02:00:00 16,7 12,1 14,9 18 10 25 14 NE 1021,7 10 0,0
24.05.2018 01:00:00 17,3 11,9 15,6 18 10 29 16 NE 1021,9 10 0,0
24.05.2018 00:00:00 18,3 11,8 16,5 21 11 29 16 NE 1021,7 10 0,0
23.05.2018 23:00:00 19,1 11,8 17,1 18 10 29 16 NE 1021,7 10 0,0
23.05.2018 22:00:00 19,4 12,2 17,4 15 8 29 16 NNE 1021,4 10 0,0
23.05.2018 21:00:00 21,4 8,7 19,8 22 12 36 19 ENE 1021,0 10 0,0
23.05.2018 20:00:00 22,6 11,3 21,9 24 13 36 19 ENE 1020,3 10 0,0
23.05.2018 19:00:00 23,6 11,7 23,4 24 13 40 21 NE 1019,9 10 0,0
23.05.2018 18:00:00 23,7 12,4 24,7 18 10 32 18 NE 1020,1 10 0,0
23.05.2018 17:00:00 24,8 13,4 26,0 18 10 32 18 NE 1020,1 10 0,0
23.05.2018 16:00:00 22,5 14,2 23,2 16 9 22 12 ENE 1020,6 10 0,0
23.05.2018 15:00:00 21,3 15,4 22,5 15 8 - - ENE 1020,9 10 0,0
23.05.2018 14:00:00 20,3 14,1 21,5 22 12 29 16 NE 1021,0 10 0,0
23.05.2018 13:00:00 20,2 13,2 20,9 16 9 32 18 NE 1021,0 10 0,0
23.05.2018 12:00:00 20,6 15,1 20,8 18 10 25 14 NNE 1020,8 10 0,0
23.05.2018 11:00:00 17,9 15,4 17,3 13 7 18 10 NNE 1020,5 10 0,2
23.05.2018 10:00:00 16,5 14,5 16,4 8 4 14 8 NE 1020,1 10 0,6
23.05.2018 09:00:00 16,3 14,4 16,3 9 5 14 8 ENE 1019,9 9 0,0
23.05.2018 08:00:00 15,7 14,3 15,4 11 6 18 10 N 1019,3 8 0,0
23.05.2018 07:00:00 15,1 14,2 14,7 9 5 18 10 NNE 1018,5 10 0,4
23.05.2018 06:00:00 15,2 13,6 14,6 11 6 14 8 NNE 1018,0 10 0,0
23.05.2018 05:00:00 15,3 13,2 14,2 9 5 14 8 NE 1017,7 10 0,0
23.05.2018 04:00:00 14,5 12,6 13,0 9 5 18 10 NE 1017,5 10 0,0
23.05.2018 03:00:00 15,2 12,1 13,6 13 7 18 10 NE 1016,9 10 0,0
23.05.2018 02:00:00 15,5 11,4 13,9 11 6 18 10 NNE 1016,7 10 0,0
23.05.2018 01:00:00 16,0 10,7 14,6 13 7 25 14 NNE 1016,8 10 0,0
23.05.2018 00:00:00 16,9 9,8 15,7 15 8 25 14 NNE 1016,4 10 0,0
22.05.2018 23:00:00 17,9 10,2 17,1 16 9 29 16 NNE 1016,3 10 0,0
22.05.2018 22:00:00 18,7 10,8 17,8 11 6 29 16 NNE 1015,7 10 0,0
22.05.2018 21:00:00 19,6 10,0 18,7 16 9 29 16 NNE 1015,2 10 0,0
22.05.2018 20:00:00 20,3 10,3 19,4 22 12 40 21 NNE 1014,6 10 0,0
22.05.2018 19:00:00 21,0 10,8 19,9 16 9 29 16 NNE 1014,2 10 0,0
22.05.2018 18:00:00 21,0 11,4 20,0 11 6 18 10 NE 1014,1 10 0,0
22.05.2018 17:00:00 20,7 11,4 21,4 9 5 22 12 NNE 1013,7 10 0,0
22.05.2018 16:00:00 21,4 12,7 20,2 9 5 22 12 N 1013,7 10 0,0
22.05.2018 15:00:00 18,1 12,2 17,9 15 8 22 12 NE 1014,1 10 0,0
22.05.2018 14:00:00 17,3 12,1 16,8 11 6 22 12 ENE 1013,9 10 0,1
22.05.2018 13:00:00 17,2 11,2 16,3 11 6 18 10 NNE 1013,9 10 0,2
22.05.2018 12:00:00 17,2 14,0 17,1 9 5 25 14 E 1013,8 10 0,0
22.05.2018 11:00:00 18,7 11,9 18,0 9 5 22 12 E 1013,1 10 0,0
22.05.2018 10:00:00 19,2 11,9 20,5 8 4 11 6 ENE 1013,1 10 0,0
22.05.2018 09:00:00 18,2 12,5 17,6 4 2 11 6 - 1013,2 10 0,0
22.05.2018 08:00:00 16,7 12,8 15,0 5 3 11 6 NNE 1013,0 10 0,0
22.05.2018 07:00:00 15,3 11,2 13,1 5 3 14 8 - 1012,9 10 0,0
22.05.2018 06:00:00 15,2 9,9 11,0 4 2 11 6 NE 1012,2 10 0,0
22.05.2018 05:00:00 14,3 10,5 10,4 5 3 11 6 ENE 1012,3 10 0,0
22.05.2018 04:00:00 15,0 10,4 12,1 5 3 11 6 ENE 1012,0 10 0,0
22.05.2018 03:00:00 15,4 10,8 13,0 9 5 11 6 ENE 1012,1 10 0,0
22.05.2018 02:00:00 16,5 9,8 14,1 11 6 18 10 ENE 1012,2 10 0,0
22.05.2018 01:00:00 18,8 9,9 17,3 13 7 22 12 ENE 1012,3 10 0,0
22.05.2018 00:00:00 19,7 9,9 17,6 15 8 25 14 ENE 1012,6 10 0,0
21.05.2018 23:00:00 20,2 10,4 18,6 16 9 25 14 E 1012,8 10 0,0
21.05.2018 22:00:00 21,0 10,0 19,1 15 8 22 12 ENE 1012,7 10 0,0
21.05.2018 21:00:00 21,6 10,2 20,5 13 7 25 14 ENE 1012,6 10 0,0
21.05.2018 20:00:00 22,1 12,0 21,8 5 3 14 8 ENE 1012,5 10 0,0
21.05.2018 19:00:00 22,6 11,5 21,9 5 3 11 6 SSW 1012,8 10 0,0
21.05.2018 18:00:00 22,4 9,5 21,3 11 6 32 18 SE 1013,0 10 0,0
21.05.2018 17:00:00 23,7 9,2 23,1 16 9 36 19 ESE 1013,5 10 0,0
21.05.2018 16:00:00 23,9 8,0 25,1 16 9 32 18 E 1014,0 10 0,0
21.05.2018 15:00:00 23,4 9,6 23,5 21 11 32 18 E 1014,4 10 0,0
21.05.2018 14:00:00 24,4 9,6 26,5 22 12 40 21 E 1014,9 10 0,0
21.05.2018 13:00:00 23,5 10,9 25,2 21 11 36 19 E 1015,7 10 0,0
21.05.2018 12:00:00 21,6 11,8 24,1 22 12 29 16 E 1016,5 36 0,0
21.05.2018 11:00:00 20,2 9,6 22,8 16 9 25 14 E 1016,9 10 0,0
21.05.2018 10:00:00 19,3 9,8 21,3 15 8 22 12 ENE 1017,3 10 0,0
21.05.2018 09:00:00 17,1 7,8 18,2 18 10 29 16 E 1017,7 10 0,0
21.05.2018 08:00:00 15,7 7,0 15,7 21 11 32 18 E 1018,0 10 0,0
21.05.2018 07:00:00 14,6 7,1 12,2 18 10 25 14 ENE 1018,1 10 0,0
21.05.2018 06:00:00 10,8 6,6 8,3 11 6 22 12 ENE 1018,4 10 0,0
21.05.2018 05:00:00 12,6 6,7 10,4 16 9 25 14 E 1018,7 10 0,0
21.05.2018 04:00:00 12,8 7,9 9,0 16 9 22 12 ENE 1018,9 10 0,0
21.05.2018 03:00:00 11,4 8,0 3,8 8 4 14 8 ENE 1019,1 10 0,0
21.05.2018 02:00:00 11,9 9,3 4,4 8 4 14 8 NE 1019,5 10 0,0
21.05.2018 01:00:00 13,0 9,4 6,2 9 5 18 10 ENE 1019,9 10 0,0
21.05.2018 00:00:00 13,6 11,1 8,8 9 5 18 10 ENE 1020,1 10 0,0
20.05.2018 23:00:00 15,0 12,0 10,1 9 5 18 10 NNE 1020,4 10 0,0
20.05.2018 22:00:00 17,1 12,2 15,4 13 7 25 14 NNE 1020,3 10 0,0
20.05.2018 21:00:00 18,4 12,1 17,5 16 9 25 14 NNE 1020,0 10 0,0
20.05.2018 20:00:00 20,2 11,7 20,1 15 8 29 16 NE 1019,9 10 0,0
20.05.2018 19:00:00 21,2 11,9 21,9 16 9 29 16 NNE 1020,0 10 0,0
20.05.2018 18:00:00 21,6 11,5 22,9 16 9 25 14 NNE 1020,5 10 0,0
20.05.2018 17:00:00 21,5 10,3 23,7 13 7 25 14 NE 1021,0 10 0,0
20.05.2018 16:00:00 21,2 9,8 23,5 15 8 25 14 NE 1021,8 10 0,0
20.05.2018 15:00:00 20,6 10,6 23,8 15 8 25 14 ENE 1022,4 10 0,0
20.05.2018 14:00:00 20,0 10,0 22,9 15 8 25 14 ENE 1022,9 10 0,0
20.05.2018 13:00:00 19,3 9,1 23,1 8 4 18 10 NE 1023,4 10 0,0
20.05.2018 12:00:00 18,8 9,6 22,4 8 4 18 10 - 1023,9 10 0,0
20.05.2018 11:00:00 17,6 7,1 21,2 9 5 22 12 - 1024,2 10 0,0
20.05.2018 10:00:00 16,2 10,3 19,3 8 4 14 8 E 1024,2 10 0,0
20.05.2018 09:00:00 13,3 11,6 13,9 4 2 11 6 - 1024,0 6 0,0
20.05.2018 08:00:00 10,9 10,8 11,8 5 3 7 4 NNE 1023,8 0,1 0,0
20.05.2018 07:00:00 10,3 10,3 10,7 4 2 7 4 - 1023,6 0,1 0,0
20.05.2018 06:00:00 10,2 10,1 10,2 4 2 7 4 - 1023,6 0,2 0,0
20.05.2018 05:00:00 10,6 10,5 10,4 5 3 7 4 NNE 1023,7 0,4 0,0
20.05.2018 04:00:00 9,7 9,7 8,7 5 3 11 6 NNW 1023,8 0,2 0,0
20.05.2018 03:00:00 7,5 7,2 1,8 4 2 7 4 NNW 1023,8 2,0 0,0
20.05.2018 02:00:00 8,8 8,6 3,0 4 2 7 4 NNE 1023,8 3,0 0,0
20.05.2018 01:00:00 9,2 8,9 4,6 5 3 11 6 NNW 1023,8 4,0 0,0
20.05.2018 00:00:00 10,3 9,4 9,5 9 5 11 6 NW 1023,8 6 0,0
19.05.2018 23:00:00 11,4 9,9 11,0 8 4 11 6 NW 1023,7 9 0,0
19.05.2018 22:00:00 11,7 9,9 11,2 5 3 11 6 WNW 1023,5 10 0,0
19.05.2018 21:00:00 12,0 9,9 11,9 8 4 11 6 NW 1022,9 10 0,0
19.05.2018 20:00:00 12,3 9,9 12,7 8 4 14 8 NW 1022,8 10 0,0
19.05.2018 19:00:00 12,8 9,9 13,5 8 4 14 8 WNW 1022,9 10 0,0
19.05.2018 18:00:00 12,9 9,9 13,9 8 4 14 8 WNW 1023,1 10 0,0
19.05.2018 17:00:00 13,1 9,7 14,9 9 5 14 8 WNW 1023,3 10 0,0
19.05.2018 16:00:00 13,2 9,8 14,6 11 6 18 10 WNW 1023,5 10 0,0
19.05.2018 15:00:00 13,1 9,4 14,4 9 5 22 12 NW 1023,6 10 0,0
19.05.2018 14:00:00 12,6 9,5 14,1 13 7 22 12 WNW 1023,6 10 0,0
19.05.2018 13:00:00 12,2 9,5 13,2 11 6 22 12 W 1023,8 15 0,0
19.05.2018 12:00:00 11,1 9,2 11,7 11 6 25 14 WNW 1023,9 10 0,0
19.05.2018 11:00:00 10,4 9,3 10,8 9 5 18 10 W 1023,7 9 0,0
19.05.2018 10:00:00 10,3 8,7 10,6 8 4 14 8 W 1023,6 10 0,0
19.05.2018 09:00:00 9,8 8,4 10,3 5 3 11 6 W 1023,5 10 0,0
19.05.2018 08:00:00 9,4 8,0 9,7 9 5 22 12 NW 1023,2 6 0,0
19.05.2018 07:00:00 9,4 7,4 9,2 9 5 22 12 NW 1023,0 10 0,0
19.05.2018 06:00:00 9,4 7,3 9,2 9 5 18 10 NNW 1022,8 10 0,0
19.05.2018 05:00:00 9,3 7,3 9,1 9 5 14 8 NW 1022,8 10 0,0
19.05.2018 04:00:00 9,4 7,1 9,2 9 5 18 10 N 1023,1 10 0,0
19.05.2018 03:00:00 9,4 6,8 9,3 11 6 18 10 NW 1023,2 10 0,0
19.05.2018 02:00:00 9,4 6,3 9,3 13 7 22 12 NNW 1023,1 10 0,0
19.05.2018 01:00:00 9,5 5,9 9,3 13 7 22 12 N 1023,2 10 0,0
19.05.2018 00:00:00 9,6 5,5 9,3 13 7 29 16 N 1023,5 10 0,0
18.05.2018 23:00:00 9,8 5,4 9,6 15 8 25 14 NNW 1023,6 10 0,0
18.05.2018 22:00:00 9,8 4,9 9,6 18 10 29 16 NNW 1023,6 10 0,0
18.05.2018 21:00:00 10,2 5,0 9,8 18 10 29 16 NW 1023,4 10 0,0
18.05.2018 20:00:00 10,5 5,5 10,7 21 11 29 16 NW 1023,5 10 0,0
18.05.2018 19:00:00 11,0 5,4 11,6 18 10 32 18 NNW 1023,6 10 0,0
18.05.2018 18:00:00 11,6 5,5 12,6 24 13 36 19 NW 1023,8 10 0,0
18.05.2018 17:00:00 13,2 6,5 15,2 22 12 36 19 NW 1023,6 10 0,0
18.05.2018 16:00:00 13,1 6,6 15,4 21 11 32 18 NNW 1023,8 10 0,0
18.05.2018 15:00:00 12,2 6,4 13,9 18 10 32 18 NNW 1023,8 10 0,0
18.05.2018 14:00:00 12,5 6,4 14,7 16 9 29 16 NNW 1023,9 10 0,0
18.05.2018 13:00:00 11,7 6,0 13,6 16 9 29 16 NNW 1024,2 10 0,0
18.05.2018 12:00:00 11,9 6,2 12,6 22 12 32 18 NNW 1024,3 10 0,0
18.05.2018 11:00:00 11,3 5,7 12,5 18 10 32 18 NNW 1024,2 10 0,0
18.05.2018 10:00:00 11,0 5,7 12,0 21 11 29 16 NW 1024,1 10 0,0
18.05.2018 09:00:00 10,5 5,5 11,5 16 9 29 16 NNW 1024,2 10 0,0
18.05.2018 08:00:00 9,7 5,0 10,0 16 9 32 18 NNW 1023,8 10 0,0

tt = temperature
td = dewpoint
tt 5cm = temperature 5cm
ff = wind speed
fx = gusts
dd = wind direction
ppp = reduced air pressure
vv = visibility
rr = precipitation

Next stations